COSMOS 2251 DEB, 34477

Orbit data source: Space-Track

COSMOS 2251 DEB, 34477 is space debris in LEO originally from a launch on Wed, 16 Jun 1993 UTC launched from the Plesetsk Missile And Space Complex (PKMTR). The debris from Iridium 33, an American commercial communications satellite, has been tracked extensively since its accidental collision with the defunct Russian satellite Cosmos 2251 in 2009. This event, occurring at high speed in low Earth orbit (LEO), generated thousands of pieces of space debris, significantly increasing the risk of further collisions. The Iridium 33 debris cloud has impacted space traffic management and orbital debris mitigation strategies, making it a subject of ongoing study in space situational awareness.

Loading next visibility...
Identifier
34477, 1993-036TW
Orbit
LEO
Country
Flag of CISCIS
Related business
Manufacturer
Unknown
Mission
Spacecraft
Bus & Motor
Unknown
Mass
Unknown
Launch date (UTC)
1993-06-16 (33 years ago)
Launch vehicle
Unknown
Launch site
Plesetsk Missile And Space Complex (PKMTR)
Object type
Payload
Rocket body
Debris
Shape & HBR
Unknown shape, 0.1 m
Radar Cross Section
Small (<0.1 m²)

Expand to show TLE details & history
Last TLE update: 5 hours ago

TLE from 5 hours ago
0 COSMOS 2251 DEB
1 34477U 93036TW  26122.16435351  .00002265  00000-0  48296-3 0  9994
2 34477  73.9765 161.6967 0075997 313.8349 101.8653 14.57751476906712
Epoch: 2026-05-02T03:56Z
TLE epoch observation values (Epoch: 2026-05-02T03:56:40.143Z)
Latitude
53.42708°
Longitude
-94.91253°
Altitude
720.296 km
Speed
7.495 km/s
True Right ascension
12h 17m 21s
True Declination
53° 15' 41"
Sunlit
Object was in daylight at epoch
Visualization orbit readout
Latitude
Unknown
Longitude
Unknown
Altitude
Unknown
Speed
Unknown
Apparent Right ascension
Unknown
Apparent Declination
Unknown
Sunlit
N/A
Visualization observer readout
Local Sidereal Time
16:13:25
Azimuth
Unknown
Elevation
Unknown
Doppler factor
Unknown
Orbital elements
Apogee altitude
751.825 km
Perigee altitude
644.272 km
Semi-major axis
7,076.186 km
Eccentricity
0.0076
Inclination
73.9765°
RAAN
161.6967°
Arg. of periapsis
313.8349°
True anomaly
102.71586°
Mean anomaly
101.8653°
Eccentric anomaly
102.29075°
Mean motion
3.64623 °/min
Orbital period
98.73 mins
BSTAR
0.00048296

Documentation

Showing up to 5 results
|